IRIDIUM 33 DEB, 35484

Orbit data source: Space-Track

IRIDIUM 33 DEB, 35484 is space debris in LEO originally from a launch on Sun, 14 Sep 1997 UTC launched from the Tyuratam Missile And Space Complex (TTMTR). The debris from Iridium 33, an American commercial communications satellite, has been tracked extensively since its accidental collision with the defunct Russian satellite Cosmos 2251 in 2009. This event, occurring at high speed in low Earth orbit (LEO), generated thousands of pieces of space debris, significantly increasing the risk of further collisions. The Iridium 33 debris cloud has impacted space traffic management and orbital debris mitigation strategies, making it a subject of ongoing study in space situational awareness.

Loading next visibility...
Identifier
35484, 1997-051QE
Orbit
LEO
Country
Flag of USUS
Related business
Manufacturer
Unknown
Mission
Spacecraft
Bus & Motor
Unknown
Mass
Unknown
Launch date (UTC)
1997-09-14 (29 years ago)
Launch vehicle
Unknown
Launch site
Tyuratam Missile And Space Complex (TTMTR)
Object type
Payload
Rocket body
Debris
Shape & HBR
Unknown shape, 0.1 m
Radar Cross Section
Small (<0.1 m²)

Expand to show TLE details & history
Last TLE update: 2 days ago

TLE from 2 days ago
0 IRIDIUM 33 DEB
1 35484U 97051QE  26206.84956971  .00054183  00000-0  25370-2 0  9991
2 35484  86.3401 245.3809 0011998  40.3255 319.8875 15.19437023654119
Epoch: 2026-07-25T20:23Z
TLE epoch observation values (Epoch: 2026-07-25T20:23:22.822Z)
Latitude
-0.00006°
Longitude
-4.02014°
Altitude
504.395 km
Speed
7.615 km/s
True Right ascension
16h 21m 31s
True Declination
0° 00' 00"
Sunlit
Object was in full shadow at epoch
Visualization orbit readout
Latitude
Unknown
Longitude
Unknown
Altitude
Unknown
Speed
Unknown
Apparent Right ascension
Unknown
Apparent Declination
Unknown
Sunlit
N/A
Visualization observer readout
Local Sidereal Time
21:15:57
Azimuth
Unknown
Elevation
Unknown
Doppler factor
Unknown
Orbital elements
Apogee altitude
512.645 km
Perigee altitude
496.13 km
Semi-major axis
6,882.524 km
Eccentricity
0.0012
Inclination
86.3401°
RAAN
245.3809°
Arg. of periapsis
40.3255°
True anomaly
319.79882°
Mean anomaly
319.8875°
Eccentric anomaly
319.84317°
Mean motion
3.80121 °/min
Orbital period
94.71 mins
BSTAR
0.002537
Loading maneuver chart data...
Computing Atmospheric mass density...
Loading historical data...
Loading historical data...
Loading historical data...
Loading historical data...
Loading historical data...
Loading historical data...
Loading historical data...

Documentation

Showing up to 5 results
|